Wind_Speed
30 31 32 33 34 33 32 32 31 30 31 31 30 29 28 28 28 28 27 27 26 25 25 24 23 21 21 21 22 22 22 22 23 23 23 22 22 21 21 21 20 20 21 20 19 18 17 15 14 14 13 12 11 11 11 10 10 10 10 10 10 10 10 10 8 7 8 11 12 13 15 15 16 16 17 19 20 21 22 23 25 27 29 30 32
28 29 30 32 33 33 33 32 32 31 31 31 30 30 29 29 29 28 27 26 26 26 25 24 23 22 21 21 21 22 22 22 23 24 25 24 23 23 23 22 22 22 22 22 22 21 20 19 18 17 16 15 14 14 13 13 13 13 13 13 13 14 13 13 12 10 9 11 13 14 16 17 18 19 20 21 23 24 25 26 28 30 31 32 34
27 27 29 29 30 32 33 33 33 32 32 32 31 30 30 29 29 28 27 26 26 26 26 25 24 22 22 21 21 21 22 22 23 24 25 25 25 25 24 24 23 23 23 23 24 24 23 22 21 20 19 18 17 17 16 16 16 16 16 16 16 17 17 16 15 14 13 12 14 15 17 18 19 20 22 23 25 26 28 29 31 32 33 34 35
27 27 28 28 28 30 32 33 33 33 33 32 31 31 31 30 29 28 28 27 27 27 26 26 25 23 22 21 20 21 21 21 22 23 24 25 26 26 26 25 25 25 25 25 25 25 25 24 23 23 22 21 20 20 19 19 19 19 19 19 19 20 20 19 18 18 17 16 16 17 18 19 21 22 24 25 26 27 29 30 32 33 33 34 35
28 27 27 28 29 29 30 32 33 33 33 33 32 32 32 31 30 29 28 28 28 27 27 26 25 24 22 21 20 20 20 20 21 22 22 24 25 27 27 27 26 26 26 27 27 27 26 25 25 25 25 24 23 23 22 22 22 23 22 22 23 23 23 22 22 22 21 20 20 21 21 22 23 23 25 28 29 30 31 31 32 32 32 32 32
29 27 26 28 28 28 29 30 32 32 33 33 33 33 33 32 30 29 29 29 28 28 28 27 26 24 23 22 21 20 20 20 21 21 22 23 24 25 27 28 27 28 28 28 28 28 27 27 27 27 26 26 26 26 25 25 25 26 25 25 26 26 25 25 25 25 25 24 24 24 25 25 25 25 26 28 29 30 31 32 31 30 29 29 28
30 28 27 27 28 28 28 29 30 31 32 32 33 34 34 33 31 30 30 29 29 28 28 28 26 25 23 23 21 20 21 21 21 21 22 22 22 23 25 26 28 28 28 28 28 28 27 27 28 28 27 27 27 27 27 27 27 27 28 28 28 28 28 28 28 28 27 27 26 27 27 26 26 26 26 26 27 28 29 30 28 26 26 27 27
31 29 28 28 27 26 26 27 28 29 31 32 32 33 34 33 32 31 30 30 29 28 28 28 27 26 25 24 22 22 22 22 21 21 22 22 22 22 23 24 26 27 28 27 27 26 26 26 26 27 27 27 27 27 28 28 28 28 29 29 30 30 30 29 30 29 29 28 27 27 27 25 25 24 24 24 24 24 25 26 26 25 26 28 30
32 31 30 28 26 24 25 26 28 29 30 31 32 33 33 33 32 31 31 30 28 27 27 28 28 27 26 25 24 23 23 23 22 21 21 21 21 21 22 22 24 25 26 26 25 25 25 25 25 25 25 25 25 26 27 27 28 28 29 29 30 30 30 30 29 29 28 27 26 26 25 24 23 22 21 21 21 23 24 26 27 26 27 29 31
32 32 30 28 26 24 24 25 26 28 29 30 32 32 32 32 32 32 31 30 29 28 28 28 28 27 27 26 25 25 24 23 22 20 20 21 21 21 21 21 22 22 23 23 23 23 23 23 24 23 23 23 23 23 24 25 26 26 27 27 28 29 29 28 27 27 26 26 25 25 25 24 23 21 20 20 22 25 26 29 30 29 29 30 30
32 32 31 29 27 25 24 24 25 26 27 28 30 31 31 32 32 31 31 30 30 29 29 28 28 28 27 27 26 26 25 24 23 21 21 21 22 22 21 21 21 21 21 21 21 21 21 22 21 21 21 20 20 21 22 23 24 24 24 25 26 27 27 26 26 25 26 26 25 25 25 24 22 20 20 22 24 26 29 32 34 33 32 33 33
33 32 32 31 29 26 24 24 24 25 26 27 28 29 30 30 31 30 30 30 30 29 29 29 28 27 27 27 27 26 25 24 24 23 23 22 23 23 23 22 22 21 21 21 21 21 21 21 21 21 20 19 19 20 20 21 22 23 24 25 25 26 26 26 25 25 25 26 26 25 23 23 22 20 22 24 26 27 29 33 37 37 36 36 36
35 34 33 32 30 27 25 24 24 24 25 26 27 28 29 29 29 29 29 29 29 29 29 29 28 28 28 28 27 25 25 24 24 24 24 24 25 25 25 24 24 23 23 22 22 22 22 22 22 21 20 20 19 20 20 21 22 23 24 25 25 25 25 25 26 26 25 26 26 25 23 22 22 22 24 27 28 29 30 32 36 38 38 38 38
37 36 34 32 30 29 28 25 24 24 24 25 26 27 27 28 28 29 29 29 29 29 29 29 28 28 28 28 26 25 25 24 23 24 25 26 27 27 27 27 26 26 25 25 24 24 23 23 23 23 22 21 21 21 22 22 23 24 25 26 26 26 26 26 26 26 26 26 25 25 23 23 23 25 26 29 31 32 33 33 35 38 39 39 37
38 37 34 31 30 30 30 28 26 25 24 24 25 26 27 27 28 28 28 28 29 29 29 29 29 29 29 28 27 27 26 25 23 24 25 26 28 29 29 30 29 28 28 27 27 26 25 25 25 25 25 24 23 23 24 25 26 27 27 28 27 27 27 28 27 27 27 26 24 23 23 24 25 26 28 31 34 35 36 37 38 40 41 40 37
40 38 34 31 30 31 31 30 28 27 26 25 25 26 26 27 27 27 27 28 29 29 30 30 30 30 29 29 29 28 27 26 25 24 25 26 28 30 31 32 32 31 30 29 29 28 27 27 27 27 27 26 25 25 26 27 28 29 29 29 29 28 28 28 27 26 25 24 23 23 24 25 27 28 30 34 37 38 39 40 40 41 42 40 37
40 38 35 32 30 30 31 31 30 29 28 27 26 26 26 26 26 27 27 28 29 29 29 29 29 29 28 29 29 28 27 26 26 26 26 27 29 30 32 33 33 32 31 30 30 30 29 29 28 28 28 27 27 27 27 28 30 31 31 31 30 29 29 27 26 24 23 22 22 23 25 27 29 31 34 37 39 41 42 41 40 40 40 39 36
40 38 36 32 30 29 30 31 31 31 29 28 27 26 26 26 26 26 27 27 28 27 27 27 28 27 27 27 27 27 26 26 26 26 27 29 30 31 32 33 34 34 32 32 32 32 31 30 30 30 29 29 28 28 29 30 31 32 32 32 31 29 28 26 24 22 21 21 22 24 26 29 31 34 36 39 40 41 42 40 39 38 38 36 35
40 39 36 32 29 28 29 30 31 31 30 28 28 27 27 26 26 26 26 26 26 26 26 26 26 26 26 26 26 26 26 27 27 27 28 29 30 31 32 33 34 34 33 33 33 32 31 30 30 30 30 30 30 30 31 31 32 32 33 32 31 29 26 24 22 22 22 22 23 25 27 31 33 35 37 39 41 41 40 38 36 36 36 34 34
40 39 37 32 28 27 28 29 29 30 29 29 28 28 27 26 26 26 26 26 26 25 25 26 26 26 26 26 27 27 27 27 27 27 28 29 30 31 33 34 34 33 33 33 33 33 32 31 31 31 31 31 31 31 32 32 32 32 33 32 30 27 24 23 22 23 23 23 25 27 30 33 36 38 39 40 41 40 39 37 36 36 35 34 33
40 39 37 33 29 28 28 29 29 29 29 29 29 28 27 27 26 26 26 26 26 25 25 25 26 26 26 26 27 27 27 28 27 27 28 29 30 31 33 34 34 33 33 34 34 33 33 32 32 33 32 32 32 33 32 32 31 32 33 31 28 25 23 23 23 23 23 25 27 30 33 36 38 40 40 40 40 39 38 37 36 35 34 33 33
40 39 37 34 31 31 31 31 31 31 31 30 30 29 28 28 28 28 28 28 28 27 27 27 27 27 27 27 28 28 28 28 28 28 29 30 31 32 33 33 34 34 34 34 34 34 34 33 33 33 32 32 32 33 32 31 31 32 31 29 27 25 24 24 24 25 26 28 31 33 36 38 40 40 40 40 40 38 37 36 34 32 31 32 34
39 39 37 35 33 33 33 33 33 33 32 32 31 31 31 31 30 30 30 31 31 31 31 31 31 31 31 30 30 30 29 28 27 28 28 29 30 31 32 33 33 33 34 34 34 34 33 32 33 32 31 31 32 32 31 31 31 31 30 28 26 26 25 25 26 27 29 31 34 36 38 40 41 41 40 40 39 38 36 35 32 31 30 30 32
40 39 37 35 34 34 34 34 34 34 34 34 34 34 34 33 33 33 33 34 34 34 34 34 34 34 33 33 33 32 31 30 28 28 28 28 29 30 30 31 32 32 32 32 32 32 32 32 32 31 31 31 32 31 30 30 30 30 29 28 28 27 27 28 29 31 33 35 37 38 40 41 42 41 41 40 38 37 36 34 32 30 29 29 31
41 39 36 35 36 36 35 35 35 35 35 35 35 35 35 35 35 35 35 35 35 35 34 34 34 34 34 34 33 33 33 32 31 31 31 30 30 30 30 30 30 30 30 31 31 32 32 32 31 31 31 31 31 30 30 30 30 30 30 30 30 30 30 31 33 34 36 38 40 41 42 42 42 41 40 39 37 36 34 33 31 30 29 30 31
41 39 38 38 38 37 36 35 36 35 34 34 34 34 34 34 33 33 33 33 33 33 32 32 32 32 32 32 32 32 32 32 32 32 33 33 33 32 32 32 32 31 31 31 32 32 32 31 31 31 31 32 32 32 31 31 31 31 31 31 32 32 33 34 36 38 39 41 42 43 44 44 44 42 39 37 36 34 33 31 31 30 30 30 32
40 40 40 39 38 37 36 35 34 32 31 30 30 30 29 29 29 29 29 29 30 30 30 29 28 28 28 28 28 28 28 28 29 30 31 33 33 34 34 34 35 35 34 35 35 34 33 32 32 32 32 33 34 34 34 33 33 33 33 33 34 35 36 37 39 40 42 43 44 45 45 45 43 40 38 36 35 33 32 30 30 30 30 31 33
39 38 38 38 36 34 32 29 28 26 26 26 25 25 25 25 26 26 26 26 26 26 26 25 24 23 23 22 22 23 23 23 24 25 27 28 29 31 33 35 36 36 37 37 37 37 37 36 35 35 35 35 35 35 36 36 36 36 36 36 37 38 39 41 42 43 44 45 46 46 46 44 42 39 37 36 35 32 31 30 30 30 31 32 34
36 35 34 33 31 29 27 25 24 24 23 24 25 25 25 24 24 23 24 24 23 23 22 21 21 20 20 20 21 21 20 21 22 22 23 24 25 27 29 31 33 34 35 36 37 39 40 40 40 40 40 38 37 37 38 38 38 39 39 40 41 42 42 43 44 45 46 47 47 47 45 43 40 37 35 34 33 31 30 29 30 30 31 33 35
32 31 31 29 27 25 23 22 22 22 22 23 24 23 22 22 21 20 20 20 19 19 19 20 20 21 21 21 21 21 21 22 22 23 23 24 24 25 26 27 28 29 30 32 33 35 37 39 40 41 42 41 40 40 40 40 40 41 42 43 44 44 45 46 47 47 47 47 47 46 44 41 37 35 33 32 31 30 29 30 30 30 32 33 35
32 32 32 30 28 26 24 23 22 22 23 24 23 21 20 20 20 20 19 19 18 18 19 20 21 21 22 22 22 22 22 23 23 23 23 23 23 23 23 24 24 25 26 28 29 30 32 34 36 37 39 41 42 43 43 43 42 43 43 44 45 46 46 46 47 47 46 44 43 41 39 36 33 32 31 30 29 29 30 31 30 31 32 33 35
34 33 32 31 29 29 29 28 26 25 25 25 24 21 20 21 22 22 22 21 20 21 21 22 22 23 23 23 24 23 23 22 23 23 23 23 23 23 23 24 24 25 26 27 28 29 30 31 32 33 36 38 40 41 42 42 41 41 41 42 42 42 42 42 43 43 42 40 38 35 33 31 31 30 31 31 30 29 29 29 29 30 31 32 34
35 34 32 30 28 28 29 29 28 28 28 27 25 24 24 25 25 25 26 25 24 23 23 24 24 24 24 25 25 25 24 24 25 25 24 24 24 25 25 26 26 26 27 28 29 29 29 28 28 29 32 35 36 37 37 36 36 36 36 36 37 37 37 38 39 38 37 34 32 30 29 29 30 30 31 30 30 29 28 28 29 30 31 32 34
37 35 31 28 27 27 27 26 26 26 27 26 26 26 27 27 28 30 30 30 30 29 29 28 28 28 29 29 28 28 27 27 27 27 26 26 26 26 27 28 28 29 29 29 28 27 27 27 26 27 29 31 32 32 32 31 32 33 33 32 32 32 32 33 33 31 30 29 28 29 29 29 30 30 29 29 28 28 28 29 30 31 32 32 33
38 34 31 29 29 28 28 27 26 26 26 26 27 27 27 28 29 31 31 32 33 34 34 33 33 34 36 36 34 32 31 30 30 29 28 28 28 29 30 31 32 31 29 27 26 27 28 28 28 28 29 29 28 28 29 30 31 32 32 32 33 33 31 30 28 28 28 29 28 29 29 30 30 29 29 28 28 28 29 29 30 31 32 33 33
38 35 33 32 32 31 30 29 28 27 27 28 29 31 31 31 31 31 32 33 33 33 34 34 35 36 37 37 36 34 32 32 31 30 30 31 31 32 33 34 34 33 30 28 28 29 31 31 30 31 31 29 28 29 29 30 31 31 31 32 33 33 31 29 28 28 30 30 29 30 30 29 29 29 29 28 28 28 29 30 30 31 32 32 33
38 36 36 35 34 33 31 28 27 27 28 30 32 34 34 34 32 32 33 34 32 32 32 33 34 35 35 35 35 34 33 33 33 33 33 33 33 33 34 33 32 32 31 30 29 30 30 30 29 29 28 27 27 29 30 30 30 30 31 31 31 31 30 29 29 30 31 30 30 31 31 30 29 29 29 28 28 29 29 30 31 31 32 32 32
36 35 35 34 33 31 29 26 25 24 25 27 28 30 30 30 30 30 31 32 32 32 32 32 32 33 33 34 34 34 34 35 35 35 35 34 33 32 30 29 29 29 28 26 28 29 28 26 25 25 25 24 24 27 29 30 30 31 31 31 30 30 30 30 30 31 31 31 32 32 31 29 28 28 28 28 28 28 29 30 31 31 32 32 31
33 33 33 32 31 29 27 25 23 20 19 20 22 23 24 25 26 27 29 30 31 31 31 31 31 31 31 32 32 33 34 35 35 35 34 32 30 29 27 26 27 26 24 23 25 25 24 23 24 25 26 26 26 27 30 31 31 32 32 31 30 30 30 30 30 31 31 31 30 29 29 28 28 28 28 28 28 29 29 30 30 30 30 30 31
33 34 33 31 29 27 26 24 21 18 17 18 19 20 21 22 23 25 26 27 28 29 29 29 29 29 29 29 30 31 32 32 33 32 31 28 25 24 23 23 24 24 24 24 24 24 23 23 25 25 25 27 28 30 31 32 32 33 33 32 30 30 30 30 29 30 30 30 29 28 28 28 27 27 28 28 28 28 29 30 30 30 30 30 30
34 32 30 28 26 25 24 23 21 19 18 18 19 19 20 21 21 22 24 25 26 27 27 27 27 27 27 27 28 28 28 28 28 27 25 22 20 20 20 21 23 25 26 27 26 25 23 22 23 23 24 25 28 30 32 33 34 34 33 31 29 29 30 30 29 29 29 29 29 29 28 28 27 27 28 28 28 28 29 29 29 29 29 30 29
29 27 26 24 23 22 22 22 21 20 19 18 19 19 19 19 19 20 20 22 23 23 23 23 24 24 24 24 25 25 25 25 25 23 22 22 20 19 18 19 22 24 27 28 28 26 23 22 23 25 27 29 31 33 34 34 34 34 32 30 29 29 30 30 30 29 29 29 29 29 28 27 27 27 28 28 28 28 29 29 29 29 29 29 29
24 24 24 23 22 21 21 21 21 20 19 19 20 20 20 19 18 18 18 19 19 19 19 20 21 21 22 23 23 23 23 23 23 23 23 24 23 20 19 19 20 22 24 25 25 24 24 24 25 27 28 30 30 30 30 30 31 31 31 30 30 30 30 30 30 30 30 30 29 28 27 27 27 28 28 28 28 28 28 29 29 29 29 29 28
20 21 21 22 22 22 22 21 21 21 20 20 19 19 18 18 17 16 16 16 17 17 18 19 20 21 22 22 22 23 23 23 22 22 23 24 24 23 23 23 23 23 23 23 24 25 26 27 27 27 27 27 26 27 28 28 29 30 30 31 31 31 31 32 31 31 30 29 28 28 27 27 27 28 28 28 28 28 28 29 29 29 28 28 27
17 18 19 19 20 21 21 21 21 20 20 19 19 18 17 16 15 15 14 14 15 15 16 18 20 21 23 23 24 24 25 24 24 24 24 24 25 26 26 25 24 22 22 22 23 24 25 26 27 26 26 26 26 27 27 28 29 30 31 31 32 32 31 31 30 29 29 28 27 27 27 28 28 29 29 28 28 28 28 28 28 28 27 26 25
12 14 16 17 18 19 19 20 20 19 19 19 19 18 17 16 16 16 16 15 15 15 16 17 19 21 22 24 25 26 26 27 27 26 26 25 25 24 23 22 21 21 21 21 23 24 25 26 27 27 26 26 26 27 27 28 29 30 31 31 31 30 30 29 29 28 28 28 28 28 28 28 28 29 29 28 28 29 29 28 28 28 27 25 25
11 12 14 15 16 17 17 18 18 18 19 19 19 18 18 17 17 17 17 17 17 18 18 19 19 21 23 25 26 27 28 28 28 26 25 23 21 19 18 18 19 20 21 22 23 24 25 25 26 27 27 27 28 29 30 31 32 32 32 32 32 31 30 30 30 29 30 30 30 30 29 29 30 30 30 29 29 29 29 29 28 28 27 26 26
13 13 14 15 16 16 16 16 16 16 16 17 18 19 18 18 18 18 18 18 19 19 20 20 21 22 24 25 26 28 29 29 28 26 24 23 21 20 20 22 23 23 22 22 23 24 25 26 28 29 30 31 32 32 32 33 33 33 33 34 33 33 32 31 31 31 31 31 30 30 30 31 31 31 31 30 30 30 29 29 29 28 28 27 27
17 17 16 16 17 18 19 19 18 17 17 17 18 18 19 19 19 19 19 20 20 21 21 22 23 24 25 26 26 27 27 27 27 26 25 25 25 25 25 25 25 24 23 24 25 26 27 28 30 31 32 32 32 32 33 33 33 34 34 34 34 34 33 33 32 32 32 31 31 31 31 31 32 32 32 31 31 30 30 29 28 28 28 28 28
20 20 18 17 18 19 20 21 21 21 21 20 19 19 19 20 20 20 20 21 22 22 23 23 24 25 26 27 26 26 26 26 26 26 26 26 26 26 25 24 23 23 24 25 27 28 29 30 31 31 32 32 32 32 33 33 34 34 34 34 34 34 33 33 33 32 32 32 31 31 32 32 32 32 32 31 31 30 30 29 29 28 28 28 29
23 23 22 20 20 21 21 22 23 23 23 23 22 21 21 21 22 22 22 22 23 23 24 24 25 26 26 26 26 25 26 26 26 28 28 28 27 26 25 24 23 24 26 27 28 29 29 30 30 31 32 32 33 34 34 35 36 36 35 35 34 34 33 32 32 31 31 31 31 32 32 32 32 32 32 32 31 31 30 30 29 29 30 30 31
Wind_Direction
219 221 222 223 223 223 222 222 221 220 221 221 220 219 219 217 218 221 222 223 223 223 225 227 228 228 228 228 229 230 229 229 228 228 227 226 224 223 223 221 219 218 220 223 226 229 230 232 235 238 242 245 248 252 256 258 259 263 268 272 277 280 281 281 270 251 259 275 285 291 296 301 305 307 308 310 311 311 312 312 312 312 313 314 314
219 219 220 222 223 223 223 222 222 221 221 222 221 220 219 218 219 221 222 224 224 224 226 228 228 228 228 230 231 232 231 231 231 231 230 229 227 226 226 225 223 222 222 224 226 229 231 233 237 240 243 246 250 254 258 262 264 266 270 273 278 281 281 282 281 272 262 268 277 281 284 291 296 300 303 306 307 307 308 308 309 309 309 310 310
220 220 220 222 223 223 223 223 222 222 222 222 221 221 220 220 220 221 222 223 225 225 226 228 228 227 228 230 231 233 233 233 233 233 233 232 231 229 228 228 227 226 225 225 227 230 232 233 237 241 244 247 251 255 258 263 265 268 271 274 277 280 280 279 280 279 275 273 277 280 282 286 290 294 297 299 300 301 302 303 304 304 305 306 307
221 220 220 222 223 223 224 223 222 222 222 222 221 221 221 221 221 221 222 223 224 226 226 227 228 227 228 229 230 232 234 233 235 235 234 234 233 232 230 229 229 229 228 228 229 231 233 234 237 241 244 247 251 255 258 261 265 268 271 274 276 278 279 279 280 281 280 278 280 283 285 287 290 292 293 294 295 296 298 299 300 301 304 307 310
225 222 219 220 222 223 224 223 223 222 222 222 221 221 222 223 223 223 223 224 225 226 227 228 229 228 228 230 230 232 233 234 235 235 235 234 234 233 233 231 230 230 231 230 231 233 234 236 238 241 244 248 251 255 258 261 264 268 270 273 275 276 278 280 281 281 281 282 283 285 287 288 289 291 293 295 296 296 297 297 298 300 304 308 311
227 225 221 220 222 223 223 223 223 223 223 223 222 222 224 225 225 225 225 226 226 227 229 230 232 231 230 231 231 230 232 233 234 234 235 235 235 235 234 233 231 231 232 232 233 234 235 237 239 241 244 247 251 254 257 260 263 266 269 271 273 275 276 278 280 281 282 284 286 288 290 291 291 291 292 293 295 296 296 296 298 302 307 311 314
228 227 224 223 222 222 223 224 224 224 224 224 223 223 225 226 227 227 227 228 228 229 231 233 234 234 232 232 232 230 231 233 233 233 235 236 237 237 236 235 233 232 233 234 234 235 237 238 240 242 245 247 250 254 257 259 261 264 268 270 272 274 276 278 280 281 283 285 287 289 290 291 292 292 291 291 291 293 295 296 299 305 309 310 311
228 228 226 225 224 223 223 224 224 224 224 225 225 225 226 227 228 228 229 229 230 231 232 234 236 237 236 235 233 232 232 234 234 233 234 236 237 237 238 236 235 234 234 234 235 237 237 239 240 242 245 247 250 253 257 259 261 263 266 269 272 274 276 278 280 281 283 285 287 289 290 291 292 293 293 293 293 294 295 297 302 308 310 308 307
226 227 226 226 225 223 222 222 223 223 223 224 225 226 227 228 228 228 229 230 231 231 232 234 236 237 237 236 235 234 234 235 235 234 234 236 236 236 236 236 234 233 233 234 235 236 237 239 241 242 244 247 249 253 256 259 262 264 266 268 271 273 275 277 279 281 284 286 289 292 293 295 297 297 297 297 296 296 298 301 305 309 309 307 308
224 226 226 226 224 222 221 221 222 222 222 222 224 226 227 227 228 228 228 229 230 231 232 233 235 236 237 238 237 236 236 237 237 236 234 234 234 233 232 232 232 231 231 232 233 235 236 238 240 242 244 245 247 251 255 259 261 263 266 268 270 273 275 277 280 283 287 289 292 294 297 300 302 302 302 301 300 300 303 307 309 310 309 309 313
221 225 227 226 224 221 220 221 221 221 222 222 223 225 227 227 228 228 228 228 229 230 231 233 234 236 237 238 239 238 237 238 237 236 235 232 231 231 230 229 229 228 228 229 230 232 234 237 239 242 243 243 246 250 254 258 262 265 268 270 272 274 276 279 282 285 288 290 292 294 298 301 301 301 301 301 301 303 308 311 313 312 311 312 317
216 221 225 226 223 220 219 219 220 220 221 221 222 223 226 227 228 228 228 228 229 230 231 233 234 236 237 238 240 240 239 238 236 235 235 233 231 230 228 228 227 227 227 228 229 230 233 236 240 243 244 245 247 251 255 259 264 268 271 272 274 275 278 281 283 285 287 290 292 295 298 298 296 296 299 300 303 305 307 310 311 311 311 313 316
212 217 223 225 223 219 218 218 219 219 220 220 221 222 224 226 227 227 228 229 229 230 232 233 234 235 237 238 239 241 242 240 237 234 234 235 233 231 229 228 228 228 228 229 230 231 234 237 241 245 247 248 249 252 257 261 265 268 271 273 274 276 278 281 283 285 287 289 291 293 294 292 291 295 300 303 305 305 303 304 306 308 310 312 312
210 214 219 223 223 219 218 219 219 219 219 219 221 222 223 224 226 227 228 229 229 230 231 233 234 235 237 239 240 241 242 241 238 235 234 234 235 234 233 231 229 228 228 229 230 232 234 237 241 244 248 249 250 253 257 262 265 268 270 272 275 277 279 280 281 283 285 286 288 289 289 289 293 299 305 306 306 305 303 303 305 307 309 309 309
208 212 215 219 221 220 220 220 221 221 220 220 220 221 222 224 225 226 227 228 228 230 231 233 234 236 238 240 240 240 241 241 239 236 235 234 235 236 236 235 234 231 230 230 231 233 234 237 241 244 247 249 252 254 256 260 263 267 270 272 274 275 277 277 278 280 282 283 282 283 287 292 296 301 305 305 305 304 303 304 306 306 307 307 309
206 209 212 215 217 219 221 222 223 223 222 221 220 220 221 222 223 224 226 226 227 229 230 232 234 235 237 239 240 239 239 240 238 236 236 236 235 236 237 238 238 236 234 233 233 234 236 239 242 245 248 251 253 256 258 260 262 266 270 272 273 274 274 275 276 278 278 277 278 282 288 293 297 300 303 302 302 303 303 303 304 305 306 308 310
205 207 209 211 214 216 219 222 224 225 224 222 220 218 219 220 221 222 223 225 226 227 229 231 233 234 235 237 238 239 238 238 238 236 236 236 236 237 238 238 239 240 239 238 237 238 239 241 245 248 251 253 256 258 261 262 265 267 269 271 273 273 273 275 276 275 271 271 276 283 289 293 296 299 300 299 300 300 300 301 303 306 307 308 310
204 206 206 207 209 213 216 220 222 224 223 221 218 217 218 218 218 220 222 224 226 226 227 229 231 232 234 235 236 237 236 236 235 234 234 235 237 238 239 239 240 240 241 241 241 242 242 244 247 250 254 257 259 261 263 265 267 268 270 271 271 272 273 275 274 269 267 270 277 283 288 291 294 295 296 296 297 297 299 301 305 308 307 307 309
203 204 204 204 205 209 214 217 219 221 220 218 216 215 216 216 217 219 222 223 225 226 226 227 229 230 231 233 234 234 234 234 233 232 233 234 235 237 239 240 240 240 241 242 244 246 247 248 250 252 256 259 262 263 264 265 266 267 268 269 270 271 272 271 266 264 268 274 280 284 288 291 292 293 294 295 295 296 299 302 306 306 304 305 309
202 202 201 200 201 206 210 212 214 216 215 214 214 214 214 215 216 218 220 222 225 226 226 227 229 230 231 233 234 234 234 234 233 232 233 234 235 237 240 242 242 242 243 244 246 248 250 251 253 255 257 260 263 264 265 265 265 265 265 266 268 269 267 262 260 264 270 276 281 285 289 291 292 293 295 296 297 298 300 303 304 302 302 306 310
199 200 199 198 201 205 207 209 210 212 212 212 213 212 212 213 215 217 219 222 224 226 227 229 230 230 231 233 234 235 235 235 235 234 234 235 237 238 240 242 244 245 245 246 248 250 251 253 256 257 259 260 263 264 264 263 262 261 263 265 266 265 260 257 261 267 273 278 281 285 288 290 291 293 294 296 297 299 301 303 303 303 305 309 312
198 199 199 199 203 206 208 210 211 212 213 213 213 214 214 216 219 221 223 226 228 230 232 233 233 233 233 233 234 235 234 233 234 234 233 235 237 239 241 243 246 247 248 249 250 252 253 255 256 258 259 260 261 262 262 262 260 260 262 263 262 258 256 259 265 270 275 279 282 286 288 289 291 292 294 296 298 299 300 301 302 304 306 309 313
197 198 199 201 206 209 212 214 215 217 218 218 219 220 221 223 226 228 230 233 235 236 236 237 237 236 235 234 234 235 234 233 233 234 234 235 237 239 242 245 247 248 250 251 253 254 255 256 256 257 258 258 258 260 260 260 260 261 262 260 257 255 258 264 269 272 276 279 283 286 288 290 292 293 295 297 298 298 299 299 300 303 305 308 312
197 198 200 204 208 212 215 218 220 222 223 224 225 227 228 230 232 234 235 237 238 239 239 239 239 238 237 237 236 236 236 235 234 234 235 236 237 239 242 245 248 250 251 253 254 256 256 256 256 257 257 256 257 259 259 260 260 261 260 257 255 257 260 265 269 272 276 280 283 286 288 290 292 294 295 297 297 297 297 298 299 301 303 306 310
198 200 203 207 211 215 218 221 223 225 226 227 228 229 230 232 234 235 236 238 239 240 240 240 241 241 241 241 241 241 241 240 238 237 236 237 238 239 242 245 247 250 252 254 255 256 256 256 256 256 257 257 259 259 259 259 259 259 258 256 257 259 262 265 269 272 276 280 284 286 289 291 292 294 295 295 295 295 295 296 297 299 301 305 309
201 202 206 210 214 217 220 222 223 224 224 224 226 228 229 231 233 234 236 237 239 241 242 243 245 246 246 247 246 246 246 245 244 243 241 241 241 241 243 245 246 249 251 253 254 255 256 257 257 257 257 257 258 259 258 257 257 257 257 257 258 260 264 267 270 273 277 280 283 286 289 291 292 293 294 293 292 293 294 294 295 297 300 304 307
204 205 208 211 215 218 220 222 222 222 223 223 225 227 229 232 235 236 238 241 243 246 247 248 249 249 249 250 250 251 250 248 247 247 246 245 245 245 246 247 248 249 251 254 256 258 259 260 260 259 258 257 257 257 258 258 257 257 258 258 259 262 265 267 270 273 276 279 282 286 288 290 291 292 293 291 291 292 292 292 293 295 299 303 305
207 208 210 212 214 215 216 216 216 216 218 220 223 227 230 234 238 241 244 248 250 252 253 252 251 251 251 252 251 250 249 247 245 245 246 247 247 247 248 249 250 251 253 255 258 259 260 260 261 260 259 257 256 257 258 258 259 260 260 261 262 263 265 267 270 272 276 278 282 285 287 288 290 291 291 290 290 290 290 290 293 297 301 303 305
206 207 208 208 207 205 203 204 207 211 216 220 224 227 230 234 238 240 243 244 245 247 248 246 245 246 246 244 243 242 242 242 242 241 242 242 243 243 244 246 248 250 252 254 256 257 259 260 260 260 260 260 259 259 259 259 259 261 262 263 264 265 267 268 270 273 276 279 282 284 285 287 289 289 288 288 288 288 289 292 296 299 302 304 306
200 199 197 196 194 194 197 201 206 211 217 220 221 222 223 226 229 230 233 235 236 238 240 239 237 236 235 234 234 234 235 236 234 235 236 237 239 241 242 244 247 249 251 254 255 257 259 261 261 262 263 263 262 262 261 260 259 258 260 261 263 264 266 268 271 273 276 278 280 282 284 285 286 287 286 285 286 287 289 294 299 301 302 304 308
194 191 189 189 192 199 205 210 214 216 215 214 215 215 217 220 223 225 227 228 228 230 232 233 233 232 232 234 234 232 232 234 234 235 237 239 242 246 248 249 251 251 252 253 254 255 256 258 260 262 263 263 263 263 263 262 261 260 260 261 262 264 266 268 270 272 274 276 277 279 281 283 284 284 283 283 285 287 289 293 297 299 301 305 309
192 191 192 196 202 210 215 216 216 214 212 211 213 217 222 226 228 229 229 229 229 229 231 233 236 238 238 239 239 238 237 238 240 241 243 245 249 252 254 255 256 255 254 254 253 252 253 255 258 262 264 266 266 266 265 265 265 264 263 262 263 265 266 267 269 271 272 274 274 276 279 281 282 282 281 283 286 289 290 292 295 298 301 305 310
193 194 197 201 205 210 215 216 214 213 213 216 220 225 231 236 239 238 237 236 234 233 233 236 239 242 244 245 246 245 243 243 245 246 248 251 253 256 258 260 260 260 260 260 258 257 256 257 259 261 263 265 266 267 269 269 267 265 264 264 263 263 263 265 268 269 271 272 272 273 276 278 280 281 282 284 287 290 292 293 295 297 301 305 309
195 197 200 201 202 203 208 211 213 215 218 222 226 230 233 237 241 241 240 240 239 238 237 237 237 241 245 247 247 248 247 247 248 249 251 253 255 258 261 263 264 266 265 263 262 262 261 260 259 259 259 260 263 266 267 266 266 267 268 265 260 259 263 267 268 268 269 269 269 272 277 280 281 282 284 286 288 290 292 293 295 297 300 304 309
197 198 199 198 198 199 203 208 213 218 224 228 231 234 236 239 242 241 238 238 239 240 241 241 241 243 245 245 246 247 247 246 247 249 251 253 255 257 259 260 262 264 264 263 264 262 260 260 260 259 258 258 261 264 264 263 264 267 266 261 257 259 265 269 270 270 270 270 272 278 282 283 283 284 285 287 289 290 291 293 295 297 301 305 309
195 196 197 198 199 201 206 212 218 225 231 234 236 238 241 244 247 244 238 237 238 240 241 241 241 242 243 244 246 248 248 248 248 249 251 252 253 255 257 258 260 261 261 261 260 259 261 265 267 265 262 259 257 258 259 259 259 259 257 257 260 264 268 271 272 271 270 271 276 282 283 283 283 284 286 287 288 289 291 293 295 298 302 307 311
196 197 198 200 202 206 210 217 224 231 236 239 241 242 244 247 248 245 240 238 240 241 241 241 241 241 243 244 245 247 247 247 248 248 249 251 252 254 255 258 260 261 261 258 254 254 261 267 267 265 264 262 257 253 251 251 251 250 251 255 261 265 269 272 272 269 267 271 277 280 281 282 283 284 286 287 287 289 291 293 296 299 303 307 310
199 201 203 205 207 210 214 220 225 232 238 241 242 243 243 245 245 244 241 239 240 241 241 242 242 243 243 244 244 245 246 247 247 248 249 249 249 250 251 253 255 257 256 251 247 249 255 260 261 260 258 256 253 249 245 243 244 248 253 260 264 267 269 271 269 268 269 272 275 277 279 281 282 284 285 286 287 289 291 293 296 299 303 307 310
201 204 208 211 212 213 215 219 222 226 232 236 239 240 241 242 242 242 241 241 241 242 243 244 244 245 246 246 246 246 246 247 247 246 247 247 247 248 248 248 250 251 248 242 241 247 251 255 258 258 252 246 244 242 239 239 244 251 258 263 266 266 266 266 266 268 270 271 273 275 277 279 281 282 283 285 286 288 290 292 296 300 303 306 308
209 210 212 213 212 211 214 217 220 222 224 229 234 237 239 242 244 244 244 243 243 244 245 246 247 248 248 247 247 247 246 246 246 246 247 248 249 250 249 246 246 246 243 241 245 250 252 252 253 252 247 241 239 238 238 242 250 257 260 261 261 262 263 265 267 269 269 270 272 275 276 278 280 281 282 284 286 287 289 292 296 299 302 303 304
210 209 208 209 209 210 213 217 218 218 219 224 229 233 236 240 243 244 245 245 245 245 246 247 247 247 246 244 244 244 243 244 245 245 245 246 248 248 246 243 240 240 243 246 250 252 251 247 246 247 245 243 242 243 246 251 257 260 260 259 259 261 264 267 268 269 269 270 272 274 275 277 279 280 281 282 284 287 289 292 295 297 299 300 301
200 199 200 202 204 207 212 216 218 218 220 222 226 230 232 234 237 239 241 243 244 243 243 243 243 243 241 241 241 241 241 242 241 241 242 243 244 243 241 240 239 240 244 249 252 250 246 242 242 245 248 249 250 251 254 256 258 259 259 260 262 263 265 267 268 268 269 270 271 273 275 277 278 279 280 282 284 287 290 292 294 295 296 297 298
191 193 195 197 199 203 208 213 216 218 219 220 222 225 226 227 228 230 233 237 240 240 239 239 240 239 239 240 240 241 242 241 241 241 244 246 245 242 242 244 246 246 246 246 247 245 243 244 246 248 248 247 248 250 252 255 257 258 260 263 265 266 267 268 269 269 269 271 272 274 276 277 278 279 281 283 286 288 289 290 291 292 294 295 295
191 193 194 195 196 199 202 206 208 209 210 211 213 214 215 215 216 218 222 229 235 238 238 239 240 240 240 240 241 242 242 242 242 244 246 246 244 241 243 248 253 254 249 243 241 241 244 247 250 249 247 246 248 250 253 256 258 261 263 264 265 266 267 267 268 269 270 272 274 275 276 277 278 279 281 284 286 287 288 288 290 291 292 292 292
197 198 197 197 197 198 199 201 203 204 204 205 206 206 208 210 212 215 219 225 232 237 241 243 245 246 246 245 244 243 242 243 245 246 247 248 249 250 252 255 255 252 247 243 244 246 249 251 251 251 250 251 253 254 256 258 259 260 261 262 262 264 265 267 269 271 273 274 275 276 277 278 279 280 282 285 286 286 286 287 288 289 289 289 289
208 208 207 205 205 206 207 208 210 211 212 213 215 217 219 222 223 224 226 227 230 233 237 241 245 249 250 250 248 247 246 248 250 252 253 255 256 257 257 254 250 247 248 250 252 251 250 250 251 251 252 254 255 257 259 261 261 262 264 265 267 269 271 273 276 277 278 278 279 279 279 280 281 282 284 286 286 286 286 285 285 285 285 284 284
230 226 224 220 217 215 215 217 219 222 224 226 228 230 230 230 230 230 230 230 231 233 235 237 241 245 248 249 249 249 249 250 252 253 255 256 256 252 249 250 253 256 258 257 254 252 252 252 254 256 258 260 261 263 264 265 266 268 270 272 274 276 278 279 280 280 280 280 280 280 280 281 282 282 284 285 284 283 283 282 281 282 281 280 279
247 240 238 238 238 235 233 231 231 234 237 240 242 243 243 241 238 234 232 232 233 234 236 238 240 242 245 248 249 250 250 251 251 251 250 250 250 250 254 259 262 261 257 254 254 254 256 257 258 260 262 264 265 266 267 268 269 271 273 275 276 278 278 278 278 278 278 278 279 280 280 281 281 282 282 282 280 279 279 279 280 280 281 280 279
259 251 248 249 251 251 249 246 243 243 245 250 253 255 253 249 243 238 235 235 235 237 238 239 240 240 243 245 247 249 250 251 251 250 248 248 249 252 254 256 255 253 252 254 256 258 258 258 258 259 260 262 263 265 266 267 269 270 272 273 274 275 275 276 276 276 276 277 277 277 278 278 279 279 279 279 279 278 277 277 278 278 279 280 279
262 256 253 253 256 256 255 252 251 249 249 251 256 259 258 253 248 242 238 237 237 237 239 240 239 238 241 244 246 248 248 249 249 250 249 248 249 251 252 252 253 254 257 259 261 261 260 259 259 259 259 261 263 264 266 268 270 271 271 272 272 273 273 274 274 275 275 275 276 276 276 276 277 277 277 277 277 276 275 276 276 277 278 279 279
259 256 254 254 255 256 255 254 255 254 251 250 251 252 251 250 247 244 241 240 239 238 240 241 240 238 240 244 247 247 247 248 249 249 248 246 249 253 256 256 258 263 266 268 267 266 264 263 262 262 263 264 266 268 270 271 272 272 272 273 273 273 273 273 273 273 274 275 275 276 277 277 277 277 276 276 275 274 273 273 273 274 275 276 276
Height
3189 3191 3194 3196 3198 3201 3203 3205 3207 3209 3211 3213 3215 3217 3219 3220 3222 3223 3225 3226 3228 3229 3231 3232 3233 3235 3236 3237 3238 3239 3240 3240 3241 3242 3243 3245 3246 3247 3248 3250 3251 3252 3253 3254 3255 3256 3256 3257 3257 3258 3258 3258 3259 3259 3259 3259 3259 3259 3259 3259 3259 3259 3259 3260 3260 3261 3261 3260 3260 3259 3259 3258 3258 3257 3256 3256 3255 3254 3253 3252 3250 3249 3248 3246 3245
3186 3188 3191 3193 3195 3198 3200 3202 3205 3207 3209 3210 3213 3215 3216 3218 3220 3221 3223 3224 3226 3228 3229 3230 3232 3233 3234 3235 3236 3237 3238 3239 3240 3240 3241 3243 3244 3246 3247 3248 3249 3251 3252 3252 3253 3254 3254 3255 3256 3256 3257 3257 3258 3258 3258 3258 3258 3258 3258 3258 3258 3258 3258 3258 3258 3259 3260 3259 3259 3259 3258 3257 3257 3257 3256 3255 3254 3252 3251 3250 3249 3247 3246 3245 3243
3183 3186 3188 3190 3193 3195 3197 3200 3202 3204 3206 3208 3210 3212 3214 3216 3218 3219 3221 3223 3224 3226 3227 3228 3230 3231 3232 3233 3234 3235 3236 3237 3238 3239 3240 3241 3242 3244 3245 3246 3247 3248 3250 3251 3251 3252 3253 3254 3254 3255 3255 3256 3257 3257 3257 3257 3257 3257 3257 3257 3257 3257 3257 3257 3257 3257 3258 3258 3258 3258 3258 3257 3257 3256 3255 3254 3252 3251 3250 3249 3247 3245 3244 3243 3241
3181 3183 3185 3188 3190 3192 3194 3197 3199 3201 3203 3206 3208 3210 3212 3214 3216 3217 3219 3221 3222 3224 3225 3226 3228 3229 3230 3231 3232 3233 3234 3235 3236 3237 3238 3239 3240 3241 3242 3244 3245 3246 3247 3248 3249 3250 3251 3252 3253 3253 3254 3254 3255 3255 3256 3256 3255 3256 3256 3256 3256 3255 3255 3255 3256 3256 3256 3257 3257 3257 3257 3256 3255 3255 3253 3252 3250 3249 3248 3246 3245 3243 3242 3241 3239
3178 3180 3183 3185 3187 3189 3191 3194 3196 3198 3201 3203 3206 3208 3209 3211 3213 3215 3217 3219 3220 3222 3223 3224 3225 3227 3228 3229 3230 3231 3232 3233 3234 3235 3236 3237 3238 3239 3240 3241 3243 3244 3245 3246 3247 3248 3248 3250 3250 3251 3252 3252 3253 3253 3254 3254 3254 3254 3254 3254 3254 3254 3254 3254 3254 3254 3254 3255 3255 3255 3255 3254 3254 3253 3251 3249 3247 3246 3245 3243 3242 3241 3241 3240 3238
3175 3177 3180 3182 3184 3186 3189 3191 3193 3196 3198 3200 3203 3205 3207 3209 3211 3213 3215 3217 3218 3220 3221 3222 3223 3225 3226 3227 3229 3230 3230 3231 3232 3233 3234 3235 3236 3236 3237 3239 3240 3241 3242 3243 3244 3245 3246 3247 3248 3249 3250 3251 3251 3251 3252 3252 3252 3252 3252 3252 3252 3252 3252 3252 3252 3252 3253 3253 3253 3253 3252 3251 3251 3250 3249 3247 3245 3243 3242 3240 3240 3239 3239 3237 3236
3172 3175 3177 3179 3181 3183 3186 3188 3191 3193 3195 3198 3200 3202 3204 3206 3209 3211 3213 3214 3216 3218 3219 3220 3222 3223 3224 3225 3227 3228 3229 3229 3230 3231 3232 3232 3233 3234 3235 3236 3237 3239 3240 3241 3242 3243 3244 3245 3246 3247 3248 3248 3249 3249 3249 3250 3250 3250 3250 3250 3250 3250 3250 3250 3250 3250 3251 3251 3251 3250 3250 3249 3248 3247 3246 3244 3242 3241 3239 3238 3237 3237 3236 3234 3232
3170 3172 3174 3176 3178 3181 3183 3186 3188 3190 3193 3195 3197 3199 3201 3204 3206 3208 3210 3212 3214 3216 3217 3218 3220 3221 3222 3223 3225 3226 3227 3227 3228 3229 3230 3231 3231 3232 3233 3234 3235 3236 3237 3239 3240 3241 3242 3242 3243 3244 3245 3246 3247 3247 3247 3247 3248 3248 3248 3248 3248 3248 3248 3248 3248 3248 3248 3249 3249 3248 3247 3247 3246 3245 3243 3241 3239 3238 3237 3236 3235 3234 3233 3230 3228
3167 3169 3171 3173 3176 3178 3181 3183 3185 3187 3190 3192 3194 3196 3199 3201 3203 3206 3207 3209 3211 3213 3215 3216 3217 3218 3220 3221 3222 3223 3224 3225 3226 3227 3228 3229 3230 3230 3231 3232 3233 3234 3235 3236 3237 3238 3239 3240 3241 3241 3242 3243 3244 3244 3244 3244 3245 3245 3246 3246 3245 3245 3245 3246 3246 3246 3246 3246 3246 3245 3244 3244 3243 3242 3240 3238 3237 3235 3235 3234 3232 3231 3230 3227 3225
3165 3167 3169 3171 3173 3176 3178 3180 3182 3184 3187 3189 3191 3194 3196 3198 3200 3203 3205 3207 3209 3210 3212 3213 3214 3216 3217 3219 3220 3221 3222 3223 3224 3226 3227 3227 3228 3229 3229 3230 3231 3232 3233 3234 3235 3236 3237 3238 3238 3239 3240 3241 3242 3242 3242 3242 3242 3243 3243 3243 3243 3243 3243 3243 3243 3244 3243 3243 3243 3242 3242 3241 3240 3239 3237 3236 3234 3232 3231 3231 3229 3228 3227 3225 3223
3162 3164 3166 3168 3170 3173 3175 3177 3180 3182 3184 3186 3189 3191 3193 3196 3198 3200 3202 3204 3206 3208 3209 3210 3212 3213 3215 3216 3217 3218 3220 3221 3223 3224 3225 3226 3226 3227 3228 3229 3229 3230 3231 3232 3233 3234 3235 3235 3236 3237 3238 3239 3239 3240 3240 3240 3240 3240 3241 3241 3241 3240 3240 3241 3241 3241 3241 3240 3240 3240 3239 3239 3238 3237 3235 3233 3231 3229 3228 3227 3226 3225 3223 3221 3219
3159 3161 3163 3165 3168 3170 3173 3175 3177 3179 3181 3184 3186 3188 3190 3193 3195 3197 3199 3201 3203 3205 3206 3208 3209 3211 3212 3213 3214 3216 3217 3219 3221 3222 3223 3224 3225 3225 3226 3227 3228 3229 3229 3230 3231 3232 3233 3233 3234 3235 3236 3237 3237 3238 3238 3238 3238 3238 3238 3238 3238 3238 3238 3238 3239 3239 3239 3238 3237 3237 3238 3237 3235 3235 3233 3231 3229 3227 3225 3224 3222 3221 3220 3218 3216
3156 3158 3160 3162 3165 3168 3170 3172 3174 3177 3179 3181 3183 3185 3188 3190 3192 3194 3196 3199 3200 3202 3203 3205 3207 3208 3209 3210 3212 3213 3215 3216 3218 3220 3221 3222 3223 3223 3224 3225 3226 3227 3228 3229 3229 3230 3231 3231 3232 3233 3233 3235 3236 3236 3236 3236 3236 3236 3236 3236 3236 3236 3236 3236 3236 3236 3236 3236 3235 3235 3235 3234 3233 3232 3231 3229 3227 3226 3223 3222 3220 3218 3217 3216 3215
3152 3154 3157 3159 3162 3165 3168 3170 3172 3174 3176 3178 3180 3183 3185 3187 3189 3191 3193 3195 3197 3199 3200 3202 3204 3205 3206 3207 3209 3211 3212 3213 3215 3217 3218 3219 3220 3221 3222 3223 3223 3224 3225 3226 3227 3228 3229 3229 3230 3231 3231 3232 3233 3234 3234 3234 3234 3234 3234 3233 3234 3234 3234 3234 3234 3234 3234 3233 3233 3232 3232 3231 3230 3229 3228 3227 3225 3223 3221 3219 3218 3215 3214 3213 3212
3148 3151 3154 3157 3159 3162 3164 3167 3169 3171 3173 3175 3178 3180 3182 3184 3186 3188 3190 3192 3194 3196 3197 3199 3200 3202 3203 3205 3206 3208 3209 3210 3212 3214 3215 3217 3218 3218 3219 3219 3220 3222 3223 3224 3225 3226 3227 3227 3228 3228 3229 3230 3231 3232 3232 3232 3232 3231 3231 3231 3231 3232 3232 3232 3232 3232 3232 3231 3230 3230 3229 3228 3227 3226 3226 3224 3222 3221 3219 3216 3215 3213 3211 3210 3209
3145 3148 3151 3154 3156 3159 3161 3164 3166 3168 3171 3173 3175 3177 3179 3181 3183 3185 3187 3189 3190 3192 3194 3195 3197 3199 3200 3202 3203 3204 3206 3208 3209 3211 3212 3214 3214 3215 3215 3216 3217 3218 3220 3221 3222 3223 3224 3224 3225 3226 3226 3227 3228 3229 3230 3230 3229 3229 3228 3228 3229 3229 3229 3229 3230 3230 3229 3228 3228 3227 3226 3225 3224 3224 3223 3221 3219 3217 3215 3214 3212 3210 3208 3206 3205
3142 3145 3148 3151 3154 3156 3159 3161 3163 3165 3168 3170 3172 3174 3176 3178 3180 3182 3184 3186 3187 3189 3191 3192 3194 3196 3197 3199 3200 3201 3203 3205 3206 3207 3209 3210 3211 3211 3212 3213 3213 3215 3216 3218 3219 3220 3220 3221 3222 3223 3224 3225 3226 3227 3227 3227 3226 3225 3225 3225 3226 3226 3226 3227 3227 3227 3226 3225 3225 3224 3223 3222 3222 3221 3220 3218 3216 3214 3212 3211 3210 3208 3204 3203 3201
3139 3142 3145 3148 3151 3154 3156 3158 3161 3163 3165 3167 3169 3171 3173 3175 3177 3179 3181 3183 3184 3186 3188 3190 3191 3193 3194 3195 3197 3198 3200 3201 3202 3204 3205 3206 3207 3208 3209 3209 3210 3211 3213 3214 3215 3216 3217 3219 3219 3220 3221 3222 3223 3224 3224 3223 3223 3222 3222 3222 3222 3223 3223 3224 3224 3224 3223 3223 3223 3222 3221 3220 3219 3218 3217 3215 3213 3211 3210 3208 3207 3204 3201 3200 3198
3137 3140 3143 3146 3149 3151 3154 3156 3158 3160 3163 3165 3167 3168 3171 3173 3175 3177 3178 3180 3182 3184 3185 3187 3188 3190 3191 3192 3193 3195 3197 3198 3199 3200 3202 3203 3204 3205 3205 3205 3206 3208 3210 3211 3211 3212 3214 3215 3216 3217 3218 3219 3220 3220 3220 3220 3220 3219 3219 3219 3219 3220 3221 3221 3221 3220 3220 3220 3220 3219 3218 3217 3216 3215 3214 3212 3210 3209 3207 3205 3203 3201 3199 3197 3195
3134 3137 3140 3143 3146 3149 3151 3154 3156 3158 3160 3162 3164 3166 3168 3170 3172 3174 3176 3177 3179 3181 3182 3184 3185 3187 3188 3189 3190 3191 3193 3194 3195 3197 3199 3200 3201 3201 3202 3202 3203 3205 3207 3207 3208 3209 3211 3212 3213 3214 3216 3216 3217 3217 3217 3217 3217 3216 3216 3216 3216 3217 3218 3218 3217 3217 3217 3217 3217 3216 3215 3214 3212 3211 3210 3208 3206 3205 3203 3202 3200 3198 3195 3194 3191
3132 3135 3138 3141 3144 3147 3149 3152 3154 3156 3158 3159 3161 3163 3165 3167 3169 3171 3172 3174 3176 3177 3179 3180 3182 3183 3184 3186 3187 3188 3189 3191 3192 3194 3195 3196 3197 3198 3198 3199 3200 3202 3203 3204 3205 3206 3207 3209 3210 3211 3212 3213 3213 3213 3213 3213 3213 3213 3212 3213 3214 3214 3215 3214 3214 3214 3214 3214 3214 3213 3212 3211 3209 3208 3206 3205 3203 3200 3198 3197 3196 3194 3192 3189 3186
3129 3132 3136 3138 3141 3144 3147 3149 3152 3153 3155 3157 3159 3161 3163 3165 3166 3167 3169 3171 3172 3174 3175 3177 3178 3179 3181 3182 3183 3184 3186 3187 3189 3190 3192 3193 3194 3195 3195 3196 3197 3198 3199 3200 3201 3203 3204 3205 3206 3207 3208 3209 3209 3209 3209 3209 3209 3209 3209 3210 3211 3211 3211 3211 3211 3211 3211 3211 3210 3209 3208 3207 3205 3204 3203 3201 3199 3196 3194 3192 3191 3190 3188 3186 3182
3127 3130 3133 3136 3139 3142 3145 3147 3149 3151 3153 3155 3156 3158 3160 3162 3163 3164 3166 3167 3169 3170 3171 3173 3174 3175 3177 3178 3179 3181 3182 3184 3186 3187 3188 3190 3190 3191 3192 3193 3194 3195 3196 3197 3198 3199 3200 3201 3202 3203 3204 3205 3205 3205 3205 3205 3205 3206 3206 3207 3207 3207 3207 3207 3207 3207 3207 3207 3206 3206 3204 3203 3201 3200 3199 3197 3195 3193 3190 3189 3188 3187 3186 3184 3181
3125 3128 3130 3133 3137 3139 3142 3144 3146 3148 3150 3152 3153 3155 3157 3158 3160 3161 3163 3164 3165 3166 3168 3169 3170 3171 3173 3174 3176 3177 3179 3181 3183 3184 3185 3186 3187 3188 3189 3189 3190 3191 3192 3193 3194 3195 3196 3197 3198 3198 3200 3200 3201 3201 3202 3202 3202 3203 3203 3203 3204 3204 3204 3204 3204 3204 3204 3203 3203 3201 3200 3199 3197 3196 3194 3193 3191 3189 3187 3186 3185 3184 3183 3181 3179
3122 3125 3128 3131 3134 3136 3138 3141 3143 3145 3146 3148 3150 3152 3154 3155 3157 3158 3159 3160 3161 3162 3164 3165 3166 3168 3169 3171 3172 3174 3175 3177 3179 3180 3181 3183 3184 3185 3186 3186 3187 3188 3188 3189 3190 3191 3191 3192 3193 3194 3196 3196 3197 3197 3198 3199 3199 3199 3200 3200 3200 3200 3201 3201 3201 3200 3200 3199 3198 3197 3196 3195 3193 3192 3190 3189 3187 3186 3184 3183 3181 3180 3179 3178 3177
3119 3122 3125 3128 3130 3133 3135 3137 3139 3141 3143 3145 3147 3149 3151 3152 3153 3155 3156 3157 3158 3159 3161 3162 3163 3164 3166 3167 3169 3170 3171 3173 3174 3176 3177 3178 3180 3181 3182 3182 3183 3184 3184 3185 3186 3186 3187 3188 3190 3191 3192 3192 3193 3193 3194 3194 3195 3195 3196 3196 3196 3197 3197 3197 3197 3196 3196 3195 3194 3193 3192 3190 3189 3188 3186 3185 3184 3183 3181 3180 3179 3177 3176 3175 3173
3117 3119 3122 3125 3127 3130 3132 3134 3136 3139 3141 3143 3145 3146 3148 3149 3151 3152 3153 3154 3155 3157 3158 3159 3160 3161 3162 3164 3165 3167 3168 3169 3170 3171 3172 3174 3175 3177 3177 3178 3179 3180 3180 3181 3181 3183 3184 3185 3186 3187 3188 3188 3188 3188 3189 3190 3191 3191 3192 3192 3193 3193 3193 3193 3193 3192 3192 3191 3190 3189 3188 3186 3185 3184 3182 3181 3180 3179 3178 3177 3176 3174 3172 3170 3169
3114 3117 3119 3122 3124 3127 3130 3132 3135 3137 3139 3141 3142 3144 3145 3147 3148 3150 3151 3152 3153 3154 3155 3156 3157 3158 3159 3161 3162 3163 3164 3165 3166 3168 3168 3169 3171 3172 3173 3174 3174 3175 3176 3177 3178 3179 3180 3180 3181 3182 3182 3183 3183 3184 3184 3185 3186 3187 3187 3188 3188 3188 3189 3188 3188 3188 3187 3186 3185 3184 3183 3182 3181 3180 3178 3177 3175 3175 3174 3173 3172 3170 3168 3166 3165
3112 3115 3117 3120 3123 3125 3127 3130 3132 3134 3136 3138 3140 3141 3143 3144 3145 3147 3148 3149 3150 3151 3152 3153 3154 3155 3157 3158 3158 3159 3161 3162 3163 3164 3164 3165 3166 3167 3168 3168 3169 3170 3171 3172 3173 3174 3174 3175 3176 3176 3176 3178 3179 3179 3180 3180 3181 3182 3182 3183 3183 3183 3183 3183 3183 3183 3182 3181 3180 3179 3179 3178 3177 3176 3174 3172 3171 3170 3170 3169 3167 3166 3164 3162 3160
3110 3112 3115 3118 3121 3123 3126 3128 3130 3132 3134 3136 3137 3138 3140 3141 3143 3144 3145 3146 3147 3148 3149 3150 3151 3152 3153 3154 3155 3156 3157 3158 3158 3159 3160 3161 3162 3163 3164 3164 3165 3166 3167 3168 3169 3169 3170 3170 3171 3171 3172 3173 3174 3174 3174 3176 3176 3177 3177 3178 3178 3178 3178 3178 3178 3178 3177 3176 3176 3175 3174 3174 3173 3172 3170 3169 3168 3167 3166 3165 3163 3162 3160 3157 3155
3107 3110 3113 3116 3119 3121 3124 3126 3128 3130 3131 3133 3134 3136 3137 3139 3140 3141 3142 3143 3145 3146 3147 3148 3149 3150 3151 3151 3152 3152 3153 3154 3155 3155 3156 3157 3158 3159 3160 3161 3162 3163 3164 3165 3165 3166 3166 3166 3166 3167 3167 3168 3168 3169 3169 3170 3171 3171 3172 3172 3173 3173 3173 3173 3172 3172 3172 3172 3171 3171 3170 3170 3169 3168 3167 3166 3164 3163 3161 3160 3159 3158 3156 3153 3151
3105 3108 3111 3113 3116 3118 3121 3123 3126 3128 3129 3131 3132 3133 3135 3136 3137 3138 3139 3140 3141 3142 3144 3145 3146 3147 3148 3149 3149 3149 3150 3151 3151 3152 3153 3153 3154 3155 3156 3158 3159 3160 3161 3161 3161 3162 3162 3162 3163 3163 3163 3163 3163 3164 3164 3165 3165 3166 3167 3167 3167 3167 3167 3167 3167 3167 3167 3167 3167 3167 3166 3165 3164 3163 3163 3162 3160 3159 3158 3156 3155 3154 3152 3150 3147
3104 3106 3109 3111 3113 3116 3118 3120 3122 3124 3126 3128 3129 3130 3131 3132 3134 3135 3136 3137 3138 3139 3140 3141 3143 3144 3145 3146 3146 3147 3148 3148 3148 3149 3150 3151 3151 3152 3153 3154 3156 3156 3157 3157 3158 3158 3159 3159 3160 3160 3159 3159 3159 3159 3159 3160 3160 3161 3161 3161 3161 3161 3162 3162 3163 3163 3163 3163 3163 3162 3161 3160 3159 3159 3158 3157 3156 3155 3153 3152 3151 3149 3148 3146 3144
3102 3104 3106 3108 3111 3113 3115 3117 3119 3121 3123 3124 3126 3127 3128 3129 3130 3131 3132 3134 3134 3135 3136 3137 3138 3140 3141 3143 3143 3144 3145 3146 3146 3146 3147 3148 3148 3149 3150 3151 3152 3152 3153 3154 3154 3155 3155 3155 3155 3155 3154 3154 3154 3155 3156 3156 3156 3157 3157 3157 3157 3157 3158 3158 3159 3159 3159 3159 3158 3157 3157 3156 3155 3154 3154 3153 3151 3150 3149 3148 3146 3145 3144 3142 3140
3099 3101 3104 3106 3108 3110 3112 3114 3116 3118 3119 3121 3122 3123 3124 3125 3126 3127 3129 3129 3130 3131 3132 3133 3134 3135 3137 3138 3139 3140 3142 3142 3143 3143 3144 3144 3145 3145 3146 3147 3147 3148 3149 3151 3152 3152 3152 3151 3151 3150 3149 3149 3151 3152 3153 3153 3153 3154 3154 3153 3154 3154 3155 3155 3155 3155 3155 3154 3154 3153 3153 3152 3151 3150 3150 3148 3147 3146 3145 3143 3142 3141 3139 3138 3136
3095 3098 3100 3103 3104 3106 3109 3111 3113 3115 3116 3117 3118 3119 3120 3121 3122 3123 3124 3125 3126 3127 3128 3129 3130 3131 3132 3134 3135 3137 3138 3139 3139 3139 3140 3140 3141 3141 3142 3142 3143 3144 3146 3147 3148 3148 3148 3148 3147 3145 3145 3146 3147 3148 3148 3148 3149 3149 3149 3149 3150 3150 3151 3150 3150 3150 3150 3150 3150 3149 3148 3148 3147 3146 3145 3144 3143 3142 3140 3139 3138 3136 3135 3133 3131
3091 3093 3096 3099 3101 3103 3105 3107 3109 3111 3112 3113 3114 3115 3116 3116 3117 3118 3120 3121 3122 3123 3124 3125 3126 3127 3128 3130 3131 3132 3133 3134 3135 3135 3136 3136 3137 3137 3138 3139 3139 3140 3141 3142 3142 3143 3143 3143 3141 3141 3141 3142 3142 3143 3143 3143 3144 3144 3145 3144 3144 3145 3145 3145 3145 3145 3145 3145 3145 3145 3144 3144 3143 3142 3141 3140 3139 3138 3136 3135 3134 3132 3131 3129 3127
3089 3091 3094 3096 3097 3099 3102 3104 3105 3107 3108 3108 3109 3110 3111 3112 3113 3114 3115 3117 3118 3119 3120 3121 3122 3123 3124 3125 3127 3128 3129 3129 3130 3131 3131 3132 3132 3133 3134 3134 3134 3134 3136 3137 3137 3137 3137 3137 3136 3136 3137 3138 3138 3138 3138 3139 3139 3139 3140 3140 3140 3140 3140 3140 3141 3141 3141 3141 3141 3141 3140 3139 3138 3138 3137 3136 3135 3134 3132 3131 3130 3128 3126 3124 3123
3086 3089 3092 3093 3095 3096 3098 3100 3101 3103 3104 3104 3105 3106 3107 3108 3109 3110 3112 3113 3114 3115 3116 3117 3118 3119 3120 3121 3122 3123 3124 3125 3125 3126 3127 3127 3128 3129 3129 3129 3129 3129 3130 3132 3132 3133 3132 3132 3132 3132 3133 3133 3134 3134 3134 3134 3135 3135 3136 3136 3136 3136 3136 3136 3137 3137 3137 3137 3136 3136 3136 3135 3134 3134 3133 3132 3131 3130 3128 3127 3126 3124 3122 3121 3119
3084 3086 3089 3090 3091 3092 3094 3096 3097 3099 3100 3101 3101 3102 3103 3104 3106 3107 3108 3110 3111 3112 3113 3114 3115 3116 3116 3117 3118 3118 3119 3120 3120 3121 3122 3122 3123 3124 3125 3125 3125 3124 3125 3126 3127 3128 3128 3127 3127 3128 3128 3129 3130 3131 3131 3132 3132 3133 3133 3132 3132 3132 3132 3132 3132 3132 3132 3132 3131 3131 3131 3130 3130 3129 3128 3127 3126 3126 3124 3123 3121 3120 3118 3117 3116
3082 3083 3085 3086 3087 3089 3090 3092 3094 3095 3096 3097 3098 3099 3100 3101 3103 3104 3105 3106 3107 3108 3109 3110 3111 3111 3112 3113 3113 3114 3114 3115 3116 3117 3117 3119 3120 3120 3121 3121 3121 3121 3120 3121 3121 3122 3123 3124 3124 3124 3125 3126 3127 3128 3129 3129 3129 3129 3128 3128 3128 3128 3128 3128 3128 3128 3128 3127 3127 3127 3126 3126 3125 3125 3124 3123 3122 3121 3120 3119 3117 3116 3114 3113 3112
3078 3080 3081 3082 3084 3086 3087 3088 3090 3091 3092 3094 3095 3096 3097 3098 3099 3100 3101 3102 3103 3104 3105 3106 3106 3107 3108 3109 3109 3110 3110 3111 3112 3113 3114 3115 3115 3116 3117 3118 3118 3118 3118 3118 3118 3118 3119 3120 3121 3122 3123 3123 3124 3124 3125 3125 3124 3124 3124 3124 3124 3124 3123 3124 3124 3123 3123 3123 3122 3122 3122 3121 3121 3120 3119 3119 3118 3117 3115 3114 3113 3112 3110 3109 3108
3075 3077 3078 3080 3081 3082 3084 3085 3087 3088 3089 3091 3092 3093 3094 3095 3096 3097 3098 3099 3100 3101 3102 3102 3103 3103 3104 3105 3106 3106 3107 3107 3108 3109 3110 3110 3111 3112 3113 3114 3114 3115 3115 3115 3115 3115 3116 3117 3118 3118 3119 3119 3120 3120 3120 3120 3120 3120 3120 3120 3120 3119 3119 3119 3119 3119 3119 3118 3118 3118 3117 3117 3116 3116 3115 3114 3113 3112 3111 3110 3109 3108 3106 3105 3104
3073 3075 3076 3077 3079 3080 3081 3083 3084 3085 3086 3088 3089 3090 3091 3092 3093 3094 3095 3096 3097 3097 3098 3099 3099 3100 3101 3101 3102 3103 3103 3104 3104 3105 3106 3106 3107 3108 3109 3110 3110 3111 3111 3111 3112 3112 3113 3113 3114 3114 3115 3115 3116 3116 3116 3116 3116 3116 3116 3116 3116 3115 3115 3115 3115 3115 3114 3114 3114 3114 3113 3113 3112 3111 3110 3110 3109 3108 3107 3106 3104 3103 3103 3101 3100
3073 3074 3075 3076 3077 3078 3079 3080 3081 3083 3084 3085 3086 3087 3088 3089 3090 3090 3091 3092 3093 3094 3095 3095 3096 3097 3097 3098 3099 3099 3100 3100 3101 3101 3101 3102 3103 3103 3104 3105 3106 3107 3107 3108 3109 3109 3110 3110 3110 3110 3111 3111 3112 3112 3112 3112 3112 3112 3112 3112 3112 3111 3111 3111 3110 3110 3110 3110 3109 3109 3108 3108 3107 3106 3105 3105 3104 3103 3102 3101 3100 3100 3099 3098 3097
3071 3072 3073 3074 3075 3076 3077 3078 3079 3080 3081 3082 3083 3084 3085 3086 3087 3087 3088 3089 3090 3091 3092 3092 3093 3093 3094 3095 3095 3096 3096 3097 3097 3097 3098 3098 3099 3100 3100 3101 3102 3103 3104 3104 3105 3105 3106 3106 3106 3106 3107 3107 3107 3107 3108 3108 3108 3108 3107 3107 3107 3106 3106 3106 3105 3105 3105 3104 3104 3103 3103 3102 3101 3100 3100 3099 3099 3098 3097 3096 3096 3095 3095 3094 3093
3068 3070 3071 3072 3073 3073 3074 3075 3077 3078 3079 3080 3081 3081 3082 3083 3083 3084 3085 3085 3086 3087 3088 3089 3089 3090 3090 3091 3091 3092 3092 3093 3093 3094 3094 3095 3096 3096 3097 3098 3099 3100 3101 3101 3102 3102 3102 3102 3103 3103 3103 3103 3103 3103 3103 3103 3103 3102 3102 3102 3101 3101 3101 3100 3100 3100 3099 3099 3098 3098 3097 3096 3095 3094 3094 3094 3093 3092 3092 3091 3091 3090 3090 3090 3089
3064 3066 3068 3069 3070 3071 3072 3073 3074 3075 3076 3077 3078 3079 3079 3080 3080 3081 3081 3082 3083 3083 3084 3085 3085 3086 3086 3087 3087 3088 3088 3089 3090 3090 3091 3092 3093 3094 3095 3096 3096 3097 3097 3098 3098 3099 3099 3099 3099 3099 3099 3099 3099 3099 3098 3098 3098 3097 3097 3097 3096 3096 3096 3095 3095 3094 3094 3093 3093 3092 3091 3091 3090 3089 3089 3088 3088 3087 3087 3086 3086 3085 3085 3085 3084
3061 3062 3063 3065 3067 3068 3069 3070 3070 3071 3072 3073 3074 3075 3076 3076 3077 3077 3078 3078 3079 3080 3080 3081 3082 3082 3082 3083 3083 3084 3085 3085 3086 3087 3088 3089 3090 3091 3091 3092 3092 3093 3093 3094 3094 3095 3095 3095 3095 3095 3095 3095 3094 3094 3094 3094 3093 3093 3093 3092 3092 3091 3091 3090 3090 3089 3089 3088 3087 3087 3086 3086 3085 3084 3084 3083 3083 3082 3082 3081 3081 3080 3080 3080 3079
3057 3058 3059 3060 3062 3064 3065 3066 3067 3067 3068 3069 3070 3071 3072 3073 3073 3074 3074 3075 3075 3076 3077 3078 3078 3079 3079 3079 3080 3081 3081 3082 3083 3084 3085 3086 3086 3087 3087 3088 3088 3089 3089 3089 3090 3090 3090 3090 3090 3090 3090 3090 3090 3089 3089 3089 3088 3088 3088 3087 3087 3086 3086 3085 3085 3084 3084 3083 3082 3082 3081 3081 3080 3079 3079 3078 3078 3077 3077 3076 3076 3076 3075 3075 3074
3054 3055 3055 3056 3057 3059 3061 3062 3063 3063 3064 3065 3066 3067 3068 3069 3070 3070 3071 3071 3072 3072 3073 3074 3075 3075 3076 3076 3077 3077 3078 3079 3080 3081 3081 3082 3083 3083 3084 3084 3084 3084 3084 3084 3084 3085 3085 3085 3085 3085 3085 3085 3085 3085 3084 3084 3084 3083 3083 3082 3082 3081 3081 3080 3080 3079 3079 3078 3077 3077 3076 3075 3075 3074 3073 3073 3073 3072 3072 3072 3071 3071 3071 3070 3069